Regional Weather Roundup
Issued by NWS Mobile, AL

Home | Current Version | Previous Version | Text Only | Print | Product List | Glossary On
Versions: 1 2 3 4 5 6 7 8 9 10 11 12 13 14 15 16 17 18 19 20 21 22 23 24 25 26 27 28 29 30 31 32 33 34 35 36 37 38 39 40 41 42 43 44 45 46 47 48 49 50
000
ASUS44 KMOB 070312
RWRMOB
REGIONAL WEATHER ROUNDUP
NATIONAL WEATHER SERVICE MOBILE AL
900 PM CST SAT FEB 06 2016

NOTE: "FAIR" INDICATES FEW OR NO CLOUDS BELOW 12,000 FEET WITH NO
      SIGNIFICANT WEATHER AND/OR OBSTRUCTIONS TO VISIBILITY.

  * THESE STATIONS ARE PART OF THE UNIVERSITY OF SOUTH ALABAMA
    MESONET AND ARE NOT UNDER NWS OR FAA QUALITY CONTROL.

ALZ061>064-070400-
COASTAL ALABAMA

CITY           SKY/WX    TMP DP  RH WIND       PRES   REMARKS
MOBILE REG APT PTCLDY    46  25  43 N7        30.27S
BROOKLEY FIELD PTCLDY    45  27  49 N7        30.29R
USA CAMPUS*    NOT AVBL
DOG RIVER*     NOT AVBL


CITY           SKY/WX    TMP DP  RH WIND       PRES   REMARKS
MOUNT VERNON*  NOT AVBL
SARALAND*      NOT AVBL
BAY MINETTE*   NOT AVBL
LOXLEY*        NOT AVBL
ROBERTSDALE*   NOT AVBL
FAIRHOPE*      NOT AVBL
ELBERTA*       NOT AVBL
FOLEY*         NOT AVBL
GRAND BAY*     NOT AVBL
DAUPHIN ISLND* NOT AVBL
BON SCOUR NWR* NOT AVBL
GULF SHORES    CLEAR     43  26  50 CALM      30.25F

$$

ALZ051>060-070400-
INTERIOR SOUTHWEST AND SOUTH CENTRAL ALABAMA

CITY           SKY/WX    TMP DP  RH WIND       PRES   REMARKS
GREENVILLE     PTCLDY    38  24  57 N6        30.23S
EVERGREEN      PTCLDY    35  30  82 CALM      30.25S
CASTLEBERRY*   NOT AVBL
ATMORE*        NOT AVBL
DIXIE*         NOT AVBL
ANDALUSIA/OPP  PTCLDY    45  24  43 NW5       30.23
ANDALUSIA*     NOT AVBL
FLORALA APT    CLEAR     41  27  57 NW3       30.24S
FLORALA*       NOT AVBL

$$

FLZ001>006-070400-
WESTERN FLORIDA PANHANDLE

CITY           SKY/WX    TMP DP  RH WIND       PRES   REMARKS
PENSACOLA      CLEAR     44  24  45 N3        30.24S
NAS PENSACOLA  CLEAR     43  24  47 N6        30.24R
MILTON         CLEAR     41  26  55 CALM      30.24S
WHTNG S FIELD  CLEAR     42  25  50 NW6       30.25R


CITY           SKY/WX    TMP DP  RH WIND       PRES   REMARKS
WALNUT HILL*   NOT AVBL
JAY*           NOT AVBL
DUKE FIELD     PTCLDY    44  23  43 NW5       30.23R
CRESTVIEW      PTCLDY    43  25  49 N6        30.25R
VALPARAISO     PTCLDY    46  23  40 NW8       30.23R
DESTIN         MOCLDY    50  27  40 N10       30.24R

$$

MSZ076-079-070400-
INTERIOR SOUTHEAST MISSISSIPPI

CITY           SKY/WX    TMP DP  RH WIND       PRES   REMARKS
LEAKESVILLE*   NOT AVBL
AGRICOLA*      NOT AVBL

$$

MARINE OBSERVATIONS

STATION/POSITION TIME  TEMP    WIND        PRES    WAVE
                       AIR SEA DIR/SP/G            HT/PER
                 (UTC) (F)     (DEG/KT/KT) (MB)    (FT/S)
PASCAGOULA       0200   47     350/  3/  4 1024.9R
PETIT BOIS ISLND 0200   52     300/  9/ 11 1025.5R
GRAND BAY        0100   47     310/  4     1025.0S
KATRINA CUT      0200   52     310/ 11       N/A
CEDAR POINT      0200   50     300/  7     1024.4R
E DAUPHIN ISLAND 0300   51     320/  8/  9 1024.6F
MIDDLE BAY LIGHT 0200           30/  6     1024.0R
USCG MOBILE BAY  0200   50 54  350/  3/  4 1025.5R
STATE DOCKS      0200   51                 1024.8R
MEAHER PARK      0200   47      50/  2     1025.1R
WEEKS BAY        0100   43                   N/A
FORT MORGAN      0200   51     310/ 11/ 12 1024.2R
12 S ORANGE BCH  0250   54 62  360/ 17/ 19 1023.4S   2/ 3
PENSACOLA BAY    0200   52 54  360/  4/  8 1024.4R

$$

SELECTED LOCATIONS ACROSS THE REGION

CITY           SKY/WX    TMP DP  RH WIND       PRES   REMARKS
NEW ORLEANS    PTCLDY    47  28  47 NW3       30.30R
GULFPORT       MOCLDY    45  35  68 CALM      30.28R
PASCAGOULA AP  PTCLDY    39  36  89 CALM      30.28R
PASCAGOULA*    NOT AVBL
HATTIESBURG    CLEAR     37  30  75 CALM      30.30R
LAUREL         CLEAR     34  25  69 N5        30.30R WCI  30
MERIDIAN       CLEAR     34  27  75 CALM      30.31R
JACKSON        CLEAR     37  27  67 CALM      30.31R
MONTGOMERY     CLEAR     40  23  50 NW6       30.26S
TROY           CLEAR     42  25  50 N6        30.24R
KINSTON*       NOT AVBL
GENEVA*        NOT AVBL
ASHFORD*       NOT AVBL
DOTHAN         PTCLDY    42  32  67 NE3       30.24S
PANAMA CITY    CLOUDY    47  34  60 CALM      30.20S

$$




USA.gov is the U.S. government's official web portal to all federal, state and local government web resources and services.